FW6148 Weather Reports


Display with metric or nautical units.
time (UTC)temp
F
wind
direction
speed
MPH
gust
MPH
rain 1hr
in
rain 24hr
in
rain mn
in
humidity
%
barometer
mb
20260902002525 76 360 0.0 2.0 0.00 0.00 0.00 36 1011.7
20260902002031 77 0 0.0 5.0 0.00 0.00 0.00 37 1011.8
20260902001554 77 0 1.0 5.0 0.00 0.00 0.00 37 1011.8
20260902001025 77 360 1.0 5.0 0.00 0.00 0.00 37 1011.9
20260902000530 77 0 0.0 4.0 0.00 0.00 0.00 38 1012.0
20260902000050 77 0 1.0 4.0 0.00 0.00 0.00 34 1012.0
20260901235525 77 360 1.0 4.0 0.00 0.00 0.00 35 1012.0
20260901235025 77 360 0.0 5.0 0.00 0.00 0.00 34 1012.0
20260901234551 77 360 1.0 8.0 0.00 0.00 0.00 35 1011.9
20260901234028 77 360 3.0 8.0 0.00 0.00 0.00 35 1011.9
20260901233527 77 360 3.0 9.0 0.00 0.00 0.00 36 1012.0
20260901233049 76 360 4.0 10.0 0.00 0.00 0.00 36 1012.0
20260901232532 76 360 4.0 10.0 0.00 0.00 0.00 38 1012.0
20260901232027 76 360 6.0 12.0 0.00 0.00 0.00 38 1012.1
20260901231550 75 360 2.0 12.0 0.00 0.00 0.00 38 1012.3
20260901231025 75 360 6.0 10.0 0.00 0.00 0.00 37 1012.5
20260901230527 75 360 2.0 6.0 0.00 0.00 0.00 38 1012.2
20260901225525 75 360 2.0 9.0 0.00 0.00 0.00 37 1012.1
20260901225028 76 360 0.0 9.0 0.00 0.00 0.00 37 1012.2
20260901224548 76 360 3.0 9.0 0.00 0.00 0.00 36 1012.2
20260901224029 76 360 1.0 8.0 0.00 0.00 0.00 37 1012.1
20260901223527 76 0 0.0 12.0 0.00 0.00 0.00 39 1012.2
20260901223050 76 360 2.0 12.0 0.00 0.00 0.00 38 1012.1
20260901222525 77 360 3.0 10.0 0.00 0.00 0.00 37 1012.1
20260901222024 78 360 3.0 8.0 0.00 0.00 0.00 35 1012.1
20260901221553 78 360 2.0 6.0 0.00 0.00 0.00 35 1012.0
20260901221028 79 360 1.0 8.0 0.00 0.00 0.00 35 1012.0
20260901220526 79 360 2.0 10.0 0.00 0.00 0.00 34 1012.0
20260901220113 80 39 2.0 10.0 0.00 0.00 0.00 35 1012.0
20260901215528 80 82 4.0 9.0 0.00 0.00 0.00 33 1012.1
20260901215026 81 42 3.0 5.0 0.00 0.00 0.00 32 1012.0
20260901214548 82 0 0.0 8.0 0.00 0.00 0.00 32 1011.9
20260901214027 82 0 2.0 8.0 0.00 0.00 0.00 32 1011.9
20260901213527 82 250 1.0 8.0 0.00 0.00 0.00 30 1011.8
20260901213047 82 242 0.0 3.0 0.00 0.00 0.00 31 1012.0
20260901212528 82 0 1.0 5.0 0.00 0.00 0.00 31 1012.0
20260901212027 82 0 1.0 8.0 0.00 0.00 0.00 32 1012.0
20260901211552 81 273 3.0 8.0 0.00 0.00 0.00 31 1012.0
20260901211026 81 226 2.0 6.0 0.00 0.00 0.00 31 1011.9
20260901210528 81 242 2.0 10.0 0.00 0.00 0.00 30 1012.0
20260901210045 81 208 4.0 10.0 0.00 0.00 0.00 30 1011.9
20260901205527 81 202 6.0 13.0 0.00 0.00 0.00 30 1012.0
20260901205026 81 239 7.0 14.0 0.00 0.00 0.00 30 1012.0
20260901204545 81 214 8.0 14.0 0.00 0.00 0.00 30 1012.0
20260901204027 81 205 3.0 13.0 0.00 0.00 0.00 31 1011.9
20260901203528 81 209 1.0 13.0 0.00 0.00 0.00 31 1011.8
20260901203044 82 234 9.0 13.0 0.00 0.00 0.00 30 1012.0
20260901202526 82 232 5.0 13.0 0.00 0.00 0.00 31 1012.0
20260901202025 82 0 1.0 12.0 0.00 0.00 0.00 31 1011.8
20260901201559 82 236 3.0 12.0 0.00 0.00 0.00 30 1012.0
20260901201026 82 255 3.0 14.0 0.00 0.00 0.00 31 1012.1
20260901200527 82 238 4.0 16.0 0.00 0.00 0.00 32 1012.1
20260901200050 82 286 8.0 16.0 0.00 0.00 0.00 32 1012.0
20260901195527 84 247 9.0 16.0 0.00 0.00 0.00 29 1012.0
20260901195028 84 219 9.0 16.0 0.00 0.00 0.00 31 1012.1
20260901194553 83 206 4.0 12.0 0.00 0.00 0.00 33 1012.1
20260901194025 83 237 5.0 16.0 0.00 0.00 0.00 32 1012.1
20260901193526 84 256 4.0 16.0 0.00 0.00 0.00 31 1012.1
20260901193043 84 244 8.0 18.0 0.00 0.00 0.00 31 1012.0
20260901192524 83 290 9.0 18.0 0.00 0.00 0.00 33 1012.1
20260901192025 83 254 10.0 18.0 0.00 0.00 0.00 32 1012.2
20260901191611 84 244 7.0 17.0 0.00 0.00 0.00 32 1012.2
20260901191026 84 277 5.0 16.0 0.00 0.00 0.00 31 1012.3
20260901190531 83 254 7.0 17.0 0.00 0.00 0.00 33 1012.3
20260901190048 83 258 6.0 18.0 0.00 0.00 0.00 33 1012.4
20260901185526 83 300 5.0 18.0 0.00 0.00 0.00 34 1012.4
20260901185025 83 242 10.0 17.0 0.00 0.00 0.00 33 1012.4
20260901184608 83 248 7.0 15.0 0.00 0.00 0.00 33 1012.5
20260901184030 83 224 4.0 16.0 0.00 0.00 0.00 34 1012.6
20260901183529 82 287 6.0 16.0 0.00 0.00 0.00 33 1012.6
20260901183053 82 288 7.0 16.0 0.00 0.00 0.00 34 1012.8
20260901182530 82 281 3.0 15.0 0.00 0.00 0.00 34 1012.7
20260901182032 81 241 8.0 20.0 0.00 0.00 0.00 35 1012.9
20260901181558 80 292 9.0 20.0 0.00 0.00 0.00 35 1012.9
20260901181029 81 232 8.0 18.0 0.00 0.00 0.00 34 1012.9
20260901180526 81 278 9.0 17.0 0.00 0.00 0.00 35 1012.9
20260901180045 80 252 8.0 17.0 0.00 0.00 0.00 35 1012.9
20260901175526 80 288 7.0 18.0 0.00 0.00 0.00 35 1013.0
20260901175026 80 294 7.0 18.0 0.00 0.00 0.00 35 1013.0
20260901174553 80 292 8.0 21.0 0.00 0.00 0.00 35 1013.1
20260901174028 81 252 10.0 21.0 0.00 0.00 0.00 34 1013.1
20260901173524 81 300 9.0 18.0 0.00 0.00 0.00 34 1013.0
20260901173050 80 232 10.0 19.0 0.00 0.00 0.00 35 1013.1
20260901172526 80 228 9.0 24.0 0.00 0.00 0.00 35 1013.1
20260901172027 80 360 10.0 24.0 0.00 0.00 0.00 36 1013.2
20260901171545 79 360 11.0 20.0 0.00 0.00 0.00 36 1013.2
20260901171026 79 360 9.0 21.0 0.00 0.00 0.00 36 1013.2
20260901170528 79 360 9.0 24.0 0.00 0.00 0.00 37 1013.2
20260901170053 79 360 12.0 24.0 0.00 0.00 0.00 36 1013.3
20260901165528 80 360 12.0 24.0 0.00 0.00 0.00 36 1013.3
20260901165031 79 360 9.0 23.0 0.00 0.00 0.00 37 1013.3
20260901164554 78 360 12.0 23.0 0.00 0.00 0.00 38 1013.3
20260901164025 77 360 9.0 21.0 0.00 0.00 0.00 38 1013.2
20260901163528 78 360 11.0 22.0 0.00 0.00 0.00 37 1013.3
20260901163048 77 360 12.0 22.0 0.00 0.00 0.00 38 1013.1
20260901162526 77 360 11.0 21.0 0.00 0.00 0.00 38 1013.1
20260901162026 77 360 8.0 21.0 0.00 0.00 0.00 38 1013.0
20260901161611 77 360 11.0 21.0 0.00 0.00 0.00 39 1013.0
20260901161027 77 360 10.0 21.0 0.00 0.00 0.00 39 1013.0
20260901160525 77 360 9.0 21.0 0.00 0.00 0.00 38 1012.9
20260901160112 77 360 8.0 21.0 0.00 0.00 0.00 37 1012.9
20260901155525 77 360 11.0 23.0 0.00 0.00 0.00 36 1012.9
20260901155027 78 360 13.0 23.0 0.00 0.00 0.00 35 1012.8
20260901154547 79 360 13.0 23.0 0.00 0.00 0.00 36 1012.9
20260901154027 79 360 10.0 22.0 0.00 0.00 0.00 35 1012.7
20260901153532 79 360 13.0 22.0 0.00 0.00 0.00 35 1012.8
20260901153100 78 360 10.0 22.0 0.00 0.00 0.00 35 1012.7
20260901152526 78 360 12.0 22.0 0.00 0.00 0.00 36 1012.9
20260901152026 76 360 12.0 20.0 0.00 0.00 0.00 38 1012.7
20260901151603 75 360 7.0 19.0 0.00 0.00 0.00 38 1012.8
20260901151028 73 360 9.0 20.0 0.00 0.00 0.00 38 1012.8
20260901150531 73 360 11.0 20.0 0.00 0.00 0.00 37 1012.9
20260901150049 72 360 11.0 19.0 0.00 0.00 0.00 36 1013.0
20260901145526 71 360 7.0 16.0 0.00 0.00 0.00 35 1012.9
20260901145029 70 360 6.0 16.0 0.00 0.00 0.00 35 1013.2
20260901144551 69 360 8.0 16.0 0.00 0.00 0.00 36 1013.2
20260901144026 67 360 5.0 15.0 0.00 0.00 0.00 37 1013.2
20260901143526 66 360 6.0 13.0 0.00 0.00 0.00 37 1013.2
20260901143107 65 360 6.0 13.0 0.00 0.00 0.00 38 1013.4
20260901142525 64 360 3.0 9.0 0.00 0.00 0.00 39 1013.3
20260901142029 64 360 4.0 9.0 0.00 0.00 0.00 39 1013.3
20260901141553 64 360 5.0 9.0 0.00 0.00 0.00 39 1013.3
20260901141030 64 360 5.0 12.0 0.00 0.00 0.00 39 1013.3
20260901140525 64 360 5.0 12.0 0.00 0.00 0.00 39 1013.3
20260901140053 64 360 5.0 11.0 0.00 0.00 0.00 40 1013.4
20260901135526 63 360 6.0 11.0 0.00 0.00 0.00 40 1013.3
20260901135028 63 360 5.0 11.0 0.00 0.00 0.00 41 1013.3
20260901134550 62 360 5.0 12.0 0.00 0.00 0.00 42 1013.3
20260901134029 62 360 5.0 12.0 0.00 0.00 0.00 41 1013.3
20260901133525 62 360 4.0 11.0 0.00 0.00 0.00 41 1013.3
20260901133052 62 360 5.0 12.0 0.00 0.00 0.00 41 1013.3
20260901132526 61 360 4.0 12.0 0.00 0.00 0.00 42 1013.3
20260901132027 60 360 2.0 6.0 0.00 0.00 0.00 43 1013.4
20260901131555 60 360 1.0 4.0 0.00 0.00 0.00 43 1013.3
20260901131028 60 0 0.0 4.0 0.00 0.00 0.00 44 1013.4
20260901130525 61 360 1.0 5.0 0.00 0.00 0.00 44 1013.3
20260901130052 60 0 2.0 6.0 0.00 0.00 0.00 42 1013.3
20260901125525 60 360 2.0 8.0 0.00 0.00 0.00 42 1013.3
20260901125026 60 360 3.0 8.0 0.00 0.00 0.00 42 1013.4
20260901124549 60 360 4.0 8.0 0.00 0.00 0.00 42 1013.4
20260901124025 60 360 2.0 6.0 0.00 0.00 0.00 42 1013.4
20260901123528 60 360 3.0 8.0 0.00 0.00 0.00 43 1013.4
20260901123056 60 360 2.0 8.0 0.00 0.00 0.00 43 1013.5
20260901122526 60 360 2.0 5.0 0.00 0.00 0.00 43 1013.5
20260901122027 59 360 2.0 5.0 0.00 0.00 0.00 43 1013.4
20260901121550 59 360 2.0 4.0 0.00 0.00 0.00 43 1013.5
20260901121027 59 360 1.0 3.0 0.00 0.00 0.00 44 1013.3
20260901120526 59 360 1.0 5.0 0.00 0.00 0.00 44 1013.3
20260901120058 60 360 2.0 6.0 0.00 0.00 0.00 43 1013.3
20260901115525 59 360 3.0 6.0 0.00 0.00 0.00 43 1013.5
20260901115026 58 360 3.0 6.0 0.00 0.00 0.00 44 1013.5
20260901114550 58 360 2.0 5.0 0.00 0.00 0.00 44 1013.7
20260901114026 59 360 2.0 5.0 0.00 0.00 0.00 44 1013.7
20260901113525 58 360 2.0 5.0 0.00 0.00 0.00 44 1013.7
20260901113045 59 0 0.0 2.0 0.00 0.00 0.00 44 1013.7
20260901112524 59 0 0.0 5.0 0.00 0.00 0.00 43 1013.9
20260901112025 60 0 0.0 5.0 0.00 0.00 0.00 43 1013.8
20260901111604 59 360 2.0 5.0 0.00 0.00 0.00 42 1013.9
20260901111026 59 360 2.0 5.0 0.00 0.00 0.00 43 1014.0
20260901110525 59 360 1.0 4.0 0.00 0.00 0.00 43 1013.9
20260901110050 60 360 2.0 4.0 0.00 0.00 0.00 42 1013.9
20260901105525 60 360 1.0 8.0 0.00 0.00 0.00 40 1013.9
20260901105029 61 360 1.0 8.0 0.00 0.00 0.00 39 1013.9
20260901104547 61 360 4.0 8.0 0.00 0.00 0.00 39 1013.9
20260901104026 61 360 4.0 6.0 0.00 0.00 0.00 39 1014.0
20260901103526 61 360 1.0 8.0 0.00 0.00 0.00 39 1014.0
20260901103052 61 360 1.0 8.0 0.00 0.00 0.00 39 1014.1
20260901102526 60 360 3.0 8.0 0.00 0.00 0.00 40 1014.1
20260901102024 60 360 2.0 5.0 0.00 0.00 0.00 41 1014.0
20260901101550 60 360 2.0 5.0 0.00 0.00 0.00 41 1014.1
20260901101028 60 360 1.0 5.0 0.00 0.00 0.00 41 1014.2
20260901100524 60 360 2.0 4.0 0.00 0.00 0.00 41 1014.2
20260901100054 60 360 2.0 4.0 0.00 0.00 0.00 40 1014.1
20260901095525 60 360 2.0 4.0 0.00 0.00 0.00 40 1014.2
20260901095028 60 360 2.0 4.0 0.00 0.00 0.00 41 1014.2
20260901094550 60 360 1.0 3.0 0.00 0.00 0.00 41 1014.2
20260901094025 60 0 1.0 3.0 0.00 0.00 0.00 41 1014.2
20260901093525 60 0 0.0 3.0 0.00 0.00 0.00 43 1014.4
20260901093044 60 360 2.0 3.0 0.00 0.00 0.00 42 1014.3
20260901092526 60 360 1.0 3.0 0.00 0.00 0.00 42 1014.4
20260901092025 59 360 1.0 3.0 0.00 0.00 0.00 42 1014.4
20260901091550 59 360 1.0 3.0 0.00 0.00 0.00 42 1014.5
20260901091049 60 0 0.0 3.0 0.00 0.00 0.00 43 1014.5
20260901090526 59 360 1.0 3.0 0.00 0.00 0.00 42 1014.6
20260901090045 59 0 0.0 0.0 0.00 0.00 0.00 43 1014.9
20260901085527 59 0 0.0 0.0 0.00 0.00 0.00 42 1015.0
20260901085028 59 0 0.0 3.0 0.00 0.00 0.00 44 1015.1
20260901084547 59 0 0.0 3.0 0.00 0.00 0.00 43 1015.2
20260901084027 59 0 0.0 2.0 0.00 0.00 0.00 44 1015.3
20260901083528 59 360 1.0 4.0 0.00 0.00 0.00 43 1015.4
20260901083051 59 0 1.0 4.0 0.00 0.00 0.00 43 1015.3
20260901082526 59 360 1.0 4.0 0.00 0.00 0.00 43 1015.3
20260901082027 59 360 1.0 4.0 0.00 0.00 0.00 43 1015.4
20260901081548 59 360 1.0 4.0 0.00 0.00 0.00 44 1015.6
20260901081027 58 360 1.0 3.0 0.00 0.00 0.00 45 1015.6
20260901080527 57 0 0.0 3.0 0.00 0.00 0.00 45 1015.6
20260901080050 57 0 0.0 2.0 0.00 0.00 0.00 46 1015.6
20260901075528 57 0 0.0 0.0 0.00 0.00 0.00 47 1015.7
20260901075026 57 0 0.0 0.0 0.00 0.00 0.00 47 1015.8
20260901074549 58 0 0.0 0.0 0.00 0.00 0.00 47 1016.0
20260901074025 58 0 0.0 2.0 0.00 0.00 0.00 46 1015.8
20260901073526 58 0 0.0 2.0 0.00 0.00 0.00 46 1015.9
20260901073054 58 0 0.0 2.0 0.00 0.00 0.00 45 1016.0
20260901072528 58 0 0.0 5.0 0.00 0.00 0.00 45 1016.0
20260901072031 59 0 0.0 5.0 0.00 0.00 0.00 46 1016.0
20260901071550 59 0 0.0 5.0 0.00 0.00 0.00 46 1016.1
20260901071026 59 0 1.0 5.0 0.00 0.00 0.00 46 1016.3
20260901070526 59 360 1.0 5.0 0.00 0.00 0.00 45 1016.3
20260901070051 59 360 0.0 5.0 0.00 0.00 0.00 46 1016.3
20260901065527 58 360 1.0 4.0 0.00 0.00 0.00 47 1016.4
20260901065028 58 0 0.0 0.0 0.00 0.00 0.00 47 1016.5
20260901064545 59 0 0.0 3.0 0.00 0.00 0.00 46 1016.6
20260901064028 59 0 0.0 3.0 0.00 0.00 0.00 45 1016.6
20260901063527 59 360 1.0 3.0 0.00 0.00 0.00 45 1016.6
20260901063104 59 0 0.0 2.0 0.00 0.00 0.00 47 1016.5
20260901062529 60 0 0.0 2.0 0.00 0.00 0.00 47 1016.6
20260901062026 60 0 0.0 1.0 0.00 0.00 0.00 47 1016.6
20260901061600 60 0 0.0 2.0 0.00 0.00 0.00 47 1016.5
20260901061025 60 0 0.0 2.0 0.00 0.00 0.00 48 1016.6
20260901060600 59 360 0.0 2.0 0.00 0.00 0.00 48 1016.7
20260901060057 59 0 0.0 1.0 0.00 0.00 0.00 49 1016.6
20260901055525 58 0 0.0 1.0 0.00 0.00 0.00 49 1016.6
20260901055025 58 0 0.0 2.0 0.00 0.00 0.00 48 1016.6
20260901054545 58 0 0.0 3.0 0.00 0.00 0.00 46 1016.6
20260901054025 58 0 1.0 3.0 0.00 0.00 0.00 46 1016.7
20260901053530 58 360 1.0 3.0 0.00 0.00 0.00 45 1016.7
20260901053105 58 360 1.0 3.0 0.00 0.00 0.00 45 1016.6
20260901052524 58 360 0.0 2.0 0.00 0.00 0.00 44 1016.7
20260901052025 58 0 0.0 2.0 0.00 0.00 0.00 44 1016.6
20260901051550 58 0 0.0 0.0 0.00 0.00 0.00 44 1016.6
20260901051025 58 0 0.0 0.0 0.00 0.00 0.00 44 1016.6
20260901050526 58 0 0.0 0.0 0.00 0.00 0.00 43 1016.7
20260901050056 58 0 0.0 0.0 0.00 0.00 0.00 43 1016.5
20260901045530 58 0 0.0 0.0 0.00 0.00 0.00 43 1016.7
20260901045032 58 0 0.0 0.0 0.00 0.00 0.00 42 1016.7
20260901044559 58 0 0.0 0.0 0.00 0.00 0.00 42 1016.6
20260901044026 58 0 0.0 0.0 0.00 0.00 0.00 42 1016.6
20260901043525 58 0 0.0 0.0 0.00 0.00 0.00 41 1016.7
20260901043057 58 0 0.0 0.0 0.00 0.00 0.00 42 1016.7
20260901042526 58 0 0.0 0.0 0.00 0.00 0.00 42 1016.6
20260901042024 58 0 0.0 2.0 0.00 0.00 0.00 42 1016.6
20260901041550 58 0 0.0 2.0 0.00 0.00 0.00 42 1016.6
20260901041025 58 360 0.0 2.0 0.00 0.00 0.00 42 1016.7
20260901040527 59 360 0.0 2.0 0.00 0.00 0.00 42 1016.7
20260901040049 59 360 0.0 3.0 0.00 0.00 0.00 41 1016.7
20260901035526 60 0 0.0 3.0 0.00 0.00 0.00 40 1016.7
20260901035025 61 360 1.0 3.0 0.00 0.00 0.00 38 1016.7
20260901034550 61 360 1.0 3.0 0.00 0.00 0.00 38 1016.6
20260901034030 61 360 2.0 3.0 0.00 0.00 0.00 38 1016.4
20260901033527 61 360 2.0 3.0 0.00 0.00 0.00 38 1016.4
20260901033049 61 360 2.0 3.0 0.00 0.00 0.00 38 1016.4
20260901032525 61 360 1.0 4.0 0.00 0.00 0.00 38 1016.4
20260901032025 61 360 1.0 4.0 0.00 0.00 0.00 38 1016.3
20260901031555 62 360 2.0 4.0 0.00 0.00 0.00 38 1016.4
20260901031026 61 360 2.0 4.0 0.00 0.00 0.00 38 1016.5
20260901030525 61 243 1.0 4.0 0.00 0.00 0.00 38 1016.4
20260901030043 61 244 2.0 4.0 0.00 0.00 0.00 39 1016.4
20260901025529 61 254 2.0 4.0 0.00 0.00 0.00 39 1016.4
20260901025024 62 254 2.0 4.0 0.00 0.00 0.00 39 1016.3
20260901024554 62 254 1.0 3.0 0.00 0.00 0.00 39 1016.2
20260901024027 62 0 0.0 4.0 0.00 0.00 0.00 39 1016.1
20260901023526 63 0 1.0 4.0 0.00 0.00 0.00 39 1016.1
20260901023051 63 254 2.0 4.0 0.00 0.00 0.00 38 1016.0
20260901022526 63 247 1.0 3.0 0.00 0.00 0.00 39 1016.0
20260901022029 64 360 1.0 2.0 0.00 0.00 0.00 38 1015.8
20260901021550 65 0 0.0 2.0 0.00 0.00 0.00 37 1015.8
20260901021027 66 0 0.0 2.0 0.00 0.00 0.00 36 1015.9
20260901020526 67 360 1.0 4.0 0.00 0.00 0.00 35 1015.8
20260901020053 67 0 0.0 4.0 0.00 0.00 0.00 35 1015.9
20260901015527 68 360 2.0 4.0 0.00 0.00 0.00 34 1015.8
20260901015027 69 360 1.0 3.0 0.00 0.00 0.00 34 1015.9
20260901014543 70 0 0.0 3.0 0.00 0.00 0.00 33 1015.8
20260901014028 71 360 0.0 2.0 0.00 0.00 0.00 30 1015.6
20260901013526 73 0 0.0 2.0 0.00 0.00 0.00 30 1015.6
20260901013050 74 360 0.0 2.0 0.00 0.00 0.00 30 1015.5
20260901012524 75 0 0.0 1.0 0.00 0.00 0.00 30 1015.4
20260901012024 77 0 0.0 4.0 0.00 0.00 0.00 29 1015.5
20260901011550 77 0 1.0 4.0 0.00 0.00 0.00 25 1015.4
20260901011026 77 360 1.0 3.0 0.00 0.00 0.00 24 1015.3
20260901010528 78 0 0.0 3.0 0.00 0.00 0.00 24 1015.5
20260901010049 78 237 1.0 4.0 0.00 0.00 0.00 25 1015.4
20260901005528 79 236 0.0 5.0 0.00 0.00 0.00 24 1015.3
20260901005026 79 235 2.0 5.0 0.00 0.00 0.00 23 1015.4
20260901004605 80 215 2.0 5.0 0.00 0.00 0.00 22 1015.3
20260901004025 80 216 2.0 6.0 0.00 0.00 0.00 22 1015.3
20260901003525 80 0 2.0 6.0 0.00 0.00 0.00 23 1015.4
20260901003052 80 0 0.0 4.0 0.00 0.00 0.00 23 1015.3